Погода в Пантаевке

Украина / Кировоградская область     48˚40′33″N   32˚53′41″E
темп.,
°C
ветер,
м/с
пор.,
м/с
влажн.,
%
обл.,
%
осадки,
мм/ч
давл.,
гПа
погр.,
м
17 января, вс
вс1723:00−14˚сз35907 0.0 1017191
02:00−15˚ссз35904 0.0 1017162
05:00−15˚с249539 0.0 1017165
08:00−15˚ссв359468 0.1 1017312
11:00−13˚ссв2383100 0.1 1017444
14:00−12˚с3581100 0.1 1016578
17:00−13˚ссв3589100 0.0 1017473
20:00−13˚всв2491100 0.1 1017259
18 января, пн
пн1823:00−14˚ссв1390100 0.0 1017195
02:00−14˚ссв1392100 0.0 1017168
05:00−14˚ссз2394100 0.0 1017215
08:00−13˚с1293100 0.1 1019182
11:00−11˚ссв3483100 0.1 1019632
14:00−10˚сз2377100 0.1 1018693
17:00−11˚сз3588100 0.1 1018494
20:00−11˚зсз3689100 0.1 1019386
19 января, вт
вт1923:00−11˚сз3591100 0.1 1019350
02:00−12˚зсз4790100 0.3 1019381
05:00−13˚зсз379389 0.0 1019241
08:00−14˚зсз379374 0.0 1020215
11:00−12˚зсз458366 0.0 1020435
14:00−12˚зсз458583 0.0 1020542
17:00−13˚зсз359099 0.1 1021210
20:00−14˚зсз359262 0.1 1022137
20 января, ср
ср2023:00−14˚зсз239215 0.0 102364
02:00−14˚з23928 0.0 102440
05:00−14˚зюз22920 0.0 102420
08:00−14˚ююз22920 0.0 102624
11:00−10˚ююз34820 0.0 1027249
14:00−8˚ю35810 0.0 1026348
17:00−11˚ююв34920 0.0 102688
20:00−11˚ююв47890 0.0 1026144
21 января, чт
чт2123:00−11˚ююв59900 0.0 1026200
02:00−9˚ююв5108926 0.0 1026255
05:00−8˚ююв6109198 0.0 1025270
08:00−5˚ююв5119499 0.1 1025313
11:00−2˚ююв61093100 0.1 1024413
14:00ю5994100 0.1 1023393
17:00ююв4898100 0.0 1022259
20:00+1˚ю5996100 0.0 1022264